Date String (YYYY-MM-DD hh:mm:ss) UTC,Instrument flags,Ambient pressure (hPa),Sample flow (lpm),Bypass flow (lpm),Sample temperature (°C),Ambient temperature (°C),ASC tube jacket temperature (°C),LED temperature (°C),Box temperature (°C),Sample RH (%),Span deviation,Mass concentration (μg/m³),Mass concentration (μg/m³),Mass concentration (μg/m³)
DateTimeUTC,F1_M11,P_M11,Q1_M11,Q2_M11,T1_M11,T2_M11,T3_M11,T4_M11,T5_M11,U1_M11,ZSPAN_M11,X0_M11,X2_M11,X1_M11
2022-11-17 11:00:00,,0829.2,5.00,0.00,22.2,20.6,00.0,31.2,24.0,09.1,0000.0,0013.34,0004.73,0003.73
2022-11-17 11:01:00,,0829.2,4.99,0.00,22.2,20.6,00.0,31.2,24.0,09.0,0000.0,0013.30,0004.71,0003.70
2022-11-17 11:02:00,,0829.3,5.00,0.00,22.1,20.6,00.0,31.1,23.9,09.0,0000.0,0013.35,0004.57,0003.64
2022-11-17 11:03:00,,0829.2,5.00,0.00,22.1,20.6,00.0,31.1,23.9,09.2,0000.0,0012.83,0004.50,0003.60
2022-11-17 11:04:00,,0829.2,5.00,0.00,22.1,20.6,00.0,31.1,23.9,09.2,0000.0,0012.14,0004.46,0003.56
2022-11-17 11:05:00,,0829.3,5.01,0.00,22.1,20.6,00.0,31.1,23.9,09.2,0000.0,0012.37,0004.41,0003.53
2022-11-17 11:06:00,,0829.4,5.01,0.00,22.1,21.1,00.0,31.0,24.0,09.1,0000.0,0011.98,0004.34,0003.49
2022-11-17 11:07:00,,0829.4,4.99,0.00,22.2,22.0,00.0,31.0,24.2,09.0,0000.0,0011.57,0004.24,0003.42
2022-11-17 11:08:00,,0829.4,5.00,0.00,22.3,22.3,00.0,31.0,24.3,09.0,0000.0,0011.32,0004.13,0003.38
2022-11-17 11:09:00,,0829.4,5.01,0.00,22.3,22.0,00.0,31.1,24.3,09.0,0000.0,0010.63,0004.06,0003.34
2022-11-17 11:10:00,,0829.5,4.96,0.00,22.3,21.8,00.0,31.1,24.3,09.0,0000.0,0010.46,0004.07,0003.33
2022-11-17 11:11:00,,0829.5,5.02,0.00,22.3,21.6,00.0,31.2,24.2,09.0,0000.0,0010.36,0004.02,0003.30
2022-11-17 11:12:00,,0829.5,4.99,0.00,22.3,21.4,00.0,31.2,24.2,09.0,0000.0,0010.32,0004.01,0003.29
2022-11-17 11:13:00,,0829.4,5.00,0.00,22.3,21.3,00.0,31.2,24.2,09.0,0000.0,0009.88,0004.03,0003.30
2022-11-17 11:14:00,,0829.5,4.99,0.00,22.3,21.2,00.0,31.2,24.1,09.0,0000.0,0009.72,0004.03,0003.30
2022-11-17 11:15:00,,0829.5,5.00,0.00,22.3,21.1,00.0,31.2,24.1,09.0,0000.0,0009.76,0004.04,0003.29
2022-11-17 11:16:00,,0829.5,5.00,0.00,22.3,21.0,00.0,31.2,24.1,08.8,0000.0,0009.49,0004.02,0003.27
2022-11-17 11:17:00,,0829.5,5.01,0.00,22.3,20.9,00.0,31.2,24.0,08.9,0000.0,0009.29,0003.97,0003.23
2022-11-17 11:18:00,,0829.6,5.01,0.00,22.2,20.8,00.0,31.2,24.0,09.1,0000.0,0008.55,0003.91,0003.21
2022-11-17 11:19:00,,0829.6,5.00,0.00,22.2,20.8,00.0,31.2,24.0,08.9,0000.0,0008.30,0003.91,0003.20
2022-11-17 11:20:00,,0829.6,5.00,0.00,22.2,20.8,00.0,31.1,24.0,08.9,0000.0,0008.12,0003.88,0003.19
2022-11-17 11:21:00,,0829.6,5.00,0.00,22.2,20.8,00.0,31.1,24.0,08.9,0000.0,0008.73,0003.82,0003.17
2022-11-17 11:22:00,,0829.6,5.00,0.00,22.2,20.8,00.0,31.1,24.0,08.9,0000.0,0009.16,0003.81,0003.16
2022-11-17 11:23:00,,0829.6,5.00,0.00,22.2,20.8,00.0,31.1,24.0,09.0,0000.0,0009.35,0003.78,0003.15
2022-11-17 11:24:00,,0829.7,5.01,0.00,22.2,20.8,00.0,31.1,24.0,09.0,0000.0,0009.69,0003.75,0003.15
2022-11-17 11:25:00,,0829.8,5.00,0.00,22.2,20.8,00.0,31.1,24.0,09.0,0000.0,0010.51,0003.76,0003.14
2022-11-17 11:26:00,,0829.6,5.00,0.00,22.2,20.8,00.0,31.1,24.0,09.0,0000.0,0010.89,0003.72,0003.13
2022-11-17 11:27:00,,0829.7,5.00,0.00,22.2,20.8,00.0,31.1,23.9,09.0,0000.0,0011.17,0003.69,0003.12
2022-11-17 11:28:00,,0829.7,4.98,0.00,22.2,21.0,00.0,31.0,24.0,09.1,0000.0,0010.76,0003.71,0003.14
2022-11-17 11:29:00,,0829.8,5.01,0.00,22.3,21.8,00.0,31.0,24.2,09.0,0000.0,0010.71,0003.70,0003.17
2022-11-17 11:30:00,,0829.8,5.00,0.00,22.4,22.4,00.0,31.0,24.4,09.0,0000.0,0010.60,0003.69,0003.17
2022-11-17 11:31:00,,0829.8,4.99,0.00,22.4,22.1,00.0,31.1,24.4,09.0,0000.0,0010.61,0003.71,0003.19
2022-11-17 11:32:00,,0829.8,4.99,0.00,22.4,21.8,00.0,31.2,24.3,09.0,0000.0,0009.89,0003.74,0003.20
2022-11-17 11:33:00,,0829.8,5.02,0.00,22.4,21.6,00.0,31.2,24.3,09.0,0000.0,0009.80,0003.73,0003.22
2022-11-17 11:34:00,,0829.8,4.99,0.00,22.4,21.4,00.0,31.2,24.2,09.2,0000.0,0010.08,0003.79,0003.27
2022-11-17 11:35:00,,0829.9,5.00,0.00,22.4,21.3,00.0,31.2,24.2,09.3,0000.0,0009.61,0003.84,0003.31
2022-11-17 11:36:00,,0829.8,4.99,0.00,22.3,21.2,00.0,31.2,24.2,09.5,0000.0,0009.00,0003.91,0003.35
2022-11-17 11:37:00,,0829.9,4.99,0.00,22.3,21.1,00.0,31.2,24.2,09.7,0000.0,0009.39,0003.96,0003.40
2022-11-17 11:38:00,,0829.9,5.00,0.00,22.3,21.1,00.0,31.2,24.2,09.8,0000.0,0009.10,0004.04,0003.47
2022-11-17 11:39:00,,0829.9,5.02,0.00,22.3,21.0,00.0,31.2,24.1,10.0,0000.0,0009.33,0004.15,0003.55
2022-11-17 11:40:00,,0829.9,5.00,0.00,22.3,21.0,00.0,31.2,24.1,10.0,0000.0,0009.56,0004.28,0003.64
2022-11-17 11:41:00,,0829.9,4.99,0.00,22.3,20.9,00.0,31.2,24.1,09.8,0000.0,0010.00,0004.43,0003.72
2022-11-17 11:42:00,,0829.9,5.00,0.00,22.3,20.9,00.0,31.2,24.1,09.7,0000.0,0010.27,0004.55,0003.77
2022-11-17 11:43:00,,0829.9,5.02,0.00,22.3,20.9,00.0,31.2,24.1,09.7,0000.0,0011.02,0004.71,0003.85
2022-11-17 11:44:00,,0829.9,4.98,0.00,22.3,21.5,00.0,31.1,24.2,09.8,0000.0,0012.24,0004.89,0003.94
2022-11-17 11:45:00,,0830.0,5.00,0.00,22.4,22.4,00.0,31.1,24.4,09.8,0000.0,0013.17,0005.01,0004.00
2022-11-17 11:46:00,,0830.1,4.99,0.00,22.5,22.5,00.0,31.2,24.5,09.9,0000.0,0013.98,0005.10,0004.06
2022-11-17 11:47:00,,0830.0,5.01,0.00,22.5,22.0,00.0,31.2,24.4,09.9,0000.0,0014.63,0005.17,0004.11
2022-11-17 11:48:00,,0830.1,4.99,0.00,22.5,21.7,00.0,31.3,24.3,09.8,0000.0,0015.88,0005.28,0004.14
2022-11-17 11:49:00,,0830.1,5.01,0.00,22.4,21.5,00.0,31.3,24.3,09.8,0000.5,0016.91,0005.51,0004.16
2022-11-17 11:50:00,,0830.1,4.99,0.00,22.4,21.3,00.0,31.3,24.2,09.8,0000.2,0017.96,0005.65,0004.16
2022-11-17 11:51:00,,0830.1,4.98,0.00,22.4,21.1,00.0,31.3,24.2,09.9,0000.1,0018.18,0005.70,0004.16
2022-11-17 11:52:00,,0830.1,5.01,0.00,22.4,21.1,00.0,31.3,24.2,09.9,0000.7,0019.29,0005.79,0004.17
2022-11-17 11:53:00,,0830.2,5.00,0.00,22.4,21.0,00.0,31.3,24.1,10.0,0000.2,0020.17,0005.79,0004.21
2022-11-17 11:54:00,,0830.3,5.00,0.00,22.4,21.0,00.0,31.3,24.1,10.0,-000.9,0020.44,0005.74,0004.21
2022-11-17 11:55:00,,0830.2,5.00,0.00,22.3,21.0,00.0,31.3,24.1,10.0,-000.4,0019.76,0005.66,0004.18
2022-11-17 11:56:00,,0830.3,5.00,0.00,22.3,21.0,00.0,31.3,24.1,10.0,-000.4,0019.32,0005.62,0004.16
2022-11-17 11:57:00,,0830.3,4.99,0.00,22.3,21.0,00.0,31.2,24.1,10.0,-001.9,0019.53,0005.61,0004.14
2022-11-17 11:58:00,,0830.4,5.02,0.00,22.4,21.7,00.0,31.2,24.3,10.0,-001.3,0019.22,0005.59,0004.12
2022-11-17 11:59:00,,0830.4,5.00,0.00,22.5,22.5,00.0,31.2,24.5,10.0,-001.8,0017.42,0005.52,0004.11
